Regional Weather Roundup
Issued by NWS

Home | Current Version | Previous Version | Graphics & Text | Print | Product List | Glossary On
Versions: 1 2 3 4 5 6 7 8 9 10 11 12 13 14 15 16 17 18 19 20 21 22 23 24 25 26 27 28 29 30 31 32 33 34 35 36 37 38 39 40 41 42 43 44 45 46 47 48 49 50
619
ASUS43 KMKX 260921
RWRWI

WISCONSIN REGIONAL WEATHER ROUNDUP
NATIONAL WEATHER SERVICE MILWAUKEE/SULLIVAN WI
400 AM CDT FRI MAY 26 2017

NOTE: "FAIR" INDICATES FEW OR NO CLOUDS BELOW 12,000 FEET WITH NO
SIGNIFICANT WEATHER AND/OR OBSTRUCTIONS TO VISIBILITY.

WIZ001-002-006>008-014>016-023>028-261000-
NORTHWEST WISCONSIN

CITY           SKY/WX    TMP DP  RH WIND       PRES   REMARKS
SUPERIOR ARPT  NOT AVBL
ASHLAND        LGT RAIN  49  47  93 CALM      29.76R
HAYWARD        CLOUDY    55  52  89 CALM      29.76R
SIREN          CLOUDY    58  55  90 CALM      29.73R
CUMBERLAND     CLOUDY    55  52  88 SE5       29.75R
RICE LAKE      CLOUDY    58  55  88 E3        29.77R
CHETEK         CLOUDY    57  55  91 SE3       29.76R
LADYSMITH      CLOUDY    58  54  87 CALM      29.79R
EAU CLAIRE     CLOUDY    59  54  83 SE8       29.76R
MENOMONIE      CLOUDY    58  56  91 E5        29.75S
NEW RICHMOND   CLOUDY    60  52  76 SE6       29.73R
OSCEOLA        CLOUDY    62  53  72 SE7       29.74S
$$

WIZ003>005-009-010-017-018-261000-
NORTH CENTRAL WISCONSIN

CITY           SKY/WX    TMP DP  RH WIND       PRES   REMARKS
MANITOWISH WTR CLOUDY    55  53  94 SE7       29.79S
ARBOR VITAE    CLOUDY    57  52  85 SE5       29.80S
WOODRUFF       CLOUDY    57  52  85 SE5       29.80S
RHINELANDER    CLOUDY    55  51  86 S3        29.81S
EAGLE RIVER    CLEAR     51  49  93 CALM      29.81S
LAND O LAKES   CLEAR     46  46  99 CALM      29.83S
PHILLIPS       LGT RAIN  56  53  89 S3        29.78R
TOMAHAWK       CLOUDY    55  50  83 CALM      29.80S
MEDFORD        CLOUDY    56  52  87 S5        29.80R
MERRILL        CLOUDY    56  53  88 SE5       29.80F
$$

WIZ029-030-035-036-043>047-261000-
CENTRAL WISCONSIN

CITY           SKY/WX    TMP DP  RH WIND       PRES   REMARKS
WAUSAU         CLOUDY    56  52  86 SE6       29.79S
MOSINEE        CLOUDY    54  52  94 SE6       29.80F
MARSHFIELD     LGT RAIN  56  53  90 W5        29.80R
STEVENS POINT  CLOUDY    55  53  94 SE5       29.81S
WAUPACA        MOCLDY    57  53  85 CALM      29.81S
WAUTOMA        CLOUDY    53  52  96 CALM      29.82R
WISC RAPIDS    CLOUDY    56  51  84 SW3       29.82R
CAMP DOUGLAS   PTCLDY    55  55 100 E5        29.79S
$$

WIZ011>013-019>022-031-037>040-048>050-261000-
NORTHEAST WISCONSIN

CITY           SKY/WX    TMP DP  RH WIND       PRES   REMARKS
ANTIGO         PTCLDY    51  51  97 CALM      29.82S
SHAWANO        MOCLDY    52  50  93 CALM      29.82S
OCONTO         PTCLDY    45  44  99 CALM      29.82S
STURGEON BAY   FOG       46  46 100 W3        29.83R VSB 1/2
GREEN BAY      CLEAR     49  49 100 CALM      29.82R
MANITOWOC      CLEAR     49  47  93 NW3       29.83R
APPLETON       PTCLDY    52  52 100 CALM      29.81S
CLINTONVILLE   PTCLDY    50  50 100 CALM      29.82S
OSHKOSH        CLOUDY    54  51  90 CALM      29.81S
$$

WIZ032>034-041-042-053>061-261000-
SOUTHWEST WISCONSIN

CITY           SKY/WX    TMP DP  RH WIND       PRES   REMARKS
LA CROSSE      CLOUDY    59  57  93 SE6       29.77R
SPARTA         CLOUDY    55  55 100 CALM      29.79S
VIROQUA        CLOUDY    57  54  89 N6        29.79S
BOSCOBEL       FOG       54  53  97 CALM      29.80S VSB 1/4
PRAIRIE DU CHI CLOUDY    55  52  89 SE5       29.78S FOG
PLATTEVILLE    CLEAR     57  55  94 SE3       29.81S
$$

WIZ056-057-062-063-064-067-068-261000-
SOUTH CENTRAL WISCONSIN

CITY           SKY/WX    TMP DP  RH WIND       PRES   REMARKS
REEDSBURG      CLOUDY    56  56 100 CALM      29.80R
BARABOO/DELLS  CLOUDY    56  53  91 CALM      29.80R
LONE ROCK      PTCLDY    56  54  93 CALM      29.81R FOG
MINERAL POINT  CLEAR     59  55  88 S3        29.81R
MADISON        CLOUDY    56  55  97 CALM      29.81R
MIDDLETON      CLOUDY    56  56 100 CALM      29.82R
WATERTOWN      CLOUDY    54  54 100 N3        29.81S
MONROE         PTCLDY    55  54  94 CALM      29.81R
JANESVILLE     PTCLDY    55  55 100 CALM      29.81R
$$

WIZ051-052-058>065-066-070>072-261000-
SOUTHEAST WISCONSIN

CITY           SKY/WX    TMP DP  RH WIND       PRES   REMARKS
MILWAUKEE      CLOUDY    52  50  93 CALM      29.82R
WAUKESHA       LGT RAIN  48  48 100 CALM      29.83R
MILWAUKEE/TIMM   N/A     50  46  87 CALM      29.83R
RACINE         CLOUDY    51  49  92 CALM      29.83S
KENOSHA        PTCLDY    52  50  93 W3        29.83R
FOND DU LAC    CLOUDY    54  50  86 CALM      29.81S
SHEBOYGAN      PTCLDY    49  49 100 CALM      29.82R
WEST BEND      CLOUDY    48  48 100 CALM      29.82S FOG
JUNEAU         RAIN      54  53  95 CALM      29.83R
$$

LSZ147-162-261000-
LAKE SUPERIOR

STATION/POSITION TIME  TEMP    WIND        PRES    WAVE
                       AIR SEA DIR/SP/G            HT/PER
                 (UTC) (F)     (DEG/KT/KT) (MB)    (FT/S)
W MID LAKE BUOY  0850   43 37  150/  8/  8 1007.8R   1
DEVILS ISLAND    0900   43     230/  8/  9 1007.9R
PORT WING        0830   46     170/  2/  3 1007.8S
SAXON HARBOR     0830   48      CALM  /  2 1006.8S
$$

LMZ867-665-643>646-261000-
LAKE MICHIGAN

STATION/POSITION TIME  TEMP    WIND        PRES    WAVE
                       AIR SEA DIR/SP/G            HT/PER
                 (UTC) (F)     (DEG/KT/KT) (MB)    (FT/S)
CHAMBERS ISLAND  0840   49     300/  1/  3 1009.1S
N MID LAKE BUOY  0850   43 41  320/  6/  6 1010.2R
NORTHPORT PIER   0840   50     280/  6/  8 1009.5R
KEWAUNEE LAKESHO 0848   49     310/  4/  4 1009.4R
SHEBOYGAN LAKESH 0900   52     300/  4/  4 1009.7R
PORT WASHINGTON  0840   54     300/  5/  7 1010.5R
ATWATER BUOY     0709   51     330/  2/  4 1009.1R
MILWAUKEE LAKESH 0900   54     310/  3/  3   N/A
S MID LAKE BUOY  0850   47 45  340/  8/  8 1009.7R   2/ 5
KENOSHA   LAKESH 0900   54        CALM     1010.2
$$

TC  - TEMPERATURE IN CELSIUS
VSB - VISIBILITY IN STATUTE MILES
WCI - WIND CHILL INDEX
HX  - HEAT INDEX





USA.gov is the U.S. government's official web portal to all federal, state and local government web resources and services.